Location: Coed Ely
(51.5661°N, 3.4150°W)
Time: 02:03:37
(UTC+00:00)

Meteor 2-15 - Pass Details

Date: 28 January 2021
Orbit: 937 x 955 km, 82.5° (Epoch: 24 February)

Event Time Altitude Azimuth Distance (km) Brightness Sun altitude
Rises 18:40:40 0° 348° (NNW) 3,648 7.5 -16.1°
Reaches altitude 10° 18:43:10 10° 349° (NNW) 2,698 6.9 -16.5°
Maximum altitude 18:49:22 88° 262° (W) 963 4.5 -17.5°
Drops below altitude 10° 18:55:30 10° 173° (S) 2,674 6.8 -18.4°
Sets 18:57:59 0° 173° (S) 3,613 7.5 -18.8°
